Location: Newark
(13.6797°N, 8.5297°E)
Time: 03:26:58
(UTC+00:00)

A-11 Canister half - Pass Details

Date: 24 January 2020
Orbit: 1517 x 1683 km, 47.2° (Epoch: 16 February)

Event Time Altitude Azimuth Distance (km) Brightness Sun altitude
Rises 05:26:05 0° 333° (NNW) 4,658 11.1 -7.2°
Reaches altitude 10° 05:29:52 10° 346° (NNW) 3,685 10.7 -6.3°
Maximum altitude 05:37:13 26° 39° (NE) 2,695 10.6 -4.6°
Drops below altitude 10° 05:44:40 10° 92° (E) 3,764 12.6 -2.9°
Sets 05:48:32 0° 104° (ESE) 4,776 14.6 -2.0°
